Location: Handeloh
(53.2500°N, 9.8330°E)
Time: 01:23:37
(UTC+01:00)

S-56A Canister/Altair - Pass Details

Date: 21 November 2019
Orbit: 633 x 2499 km, 38.9° (Epoch: 10 December)

Event Time Altitude Azimuth Distance (km) Brightness Sun altitude
Rises 19:25:18 0° 254° (WSW) 4,749 12.7 -27.6°
Reaches altitude 10° 19:29:32 10° 242° (WSW) 3,410 11.5 -28.2°
Maximum altitude 19:35:40 24° 193° (SSW) 2,050 9.7 -29.1°
Enters shadow 19:36:52 23° 178° (S) 2,018 9.5 -29.3°
Drops below altitude 10° 19:40:20 10° 141° (SE) 2,515 - -29.8°
Sets 19:42:56 0° 127° (SE) 3,264 - -30.2°
